Location: Firdgum
(53.2488°N, 5.5615°E)
Time: 09:14:16
(UTC+00:00)

Cosmos 1607 - Pass Details

Date: 08 December 2019
Orbit: 926 x 976 km, 65.0° (Epoch: 17 January)

Event Time Altitude Azimuth Distance (km) Brightness Sun altitude
Exits shadow 05:17:04 34° 267° (W) 1,486 4.4 -19.8°
Maximum altitude 05:19:30 54° 325° (NW) 1,128 4.0 -19.4°
Drops below altitude 10° 05:25:34 10° 42° (NE) 2,658 6.6 -18.6°
Sets 05:28:12 0° 47° (NE) 3,612 7.5 -18.2°
